Change the Weather History Date:

Friday, October 18, 2013

  Actual Average Record
Temperature  
Mean Temperature 46 °F 44 °F  
Max Temperature 61 °F 58 °F 85 °F (1958)
Min Temperature 31 °F 30 °F 6 °F (1905)
Degree Days  
Heating Degree Days 19 21  
Month to date heating degree days 368 322  
Since 1 July heating degree days 536 679  
Cooling Degree Days 0 0  
Month to date cooling degree days 0 0  
Year to date cooling degree days 445 386  
Moisture  
Dew Point 31 °F    
Average Humidity 59    
Maximum Humidity 89    
Minimum Humidity 29    
Precipitation  
Precipitation 0.00 in 0.02 in 0.63 in (1949)
Month to date precipitation 0.16 0.38  
Year to date precipitation 17.31 10.17  
Snow  
Snow 0.00 in 0.10 in 5.80 in (1949)
Month to date snowfall 0.0 0.9  
Since 1 July snowfall 0.0 1.2  
Since 1 September snowfall 0.0 1.2  
Snow Depth 0.00 in    
Sea Level Pressure  
Sea Level Pressure 30.09 in    
Wind  
Wind Speed 12 mph (WSW)    
Max Wind Speed 25 mph    
Max Gust Speed 30 mph    
Visibility 10 miles    
Events      
T = Trace of Precipitation, MM = Missing Value Source: NWS Daily Summary

Daily Weather History Graph

Daily Weather History Graph

Search for Another Location

Airport or City:

Trip Planner

Search our weather history database for the weather conditions in past years. The results will help you decide how hot, cold, wet, or windy it might be!

Date:

Astronomy

Oct. 18, 2013 Rise Set
Actual Time 7:44 AM MDT 6:23 PM MDT
Civil Twilight 7:12 AM MDT 6:55 PM MDT
Nautical Twilight 6:35 AM MDT 7:31 PM MDT
Astronomical Twilight 5:59 AM MDT 8:07 PM MDT
Moon 6:13 PM MDT (10/18) 7:23 AM MDT (10/18)
Length of Visible Light 11h 42m
Length of Day
10h 39m
Full, 100% of the Moon is Illuminated
Oct 18
Full
Oct 18
Full
Oct 26
Last Quarter
Nov 3
New
Nov 9
First Quarter

Hourly Weather History & Observations

Time (MDT) Temp. Windchill Dew Point Humidity Pressure Visibility Wind Dir Wind Speed Gust Speed Precip Events Conditions
12:53 AM 34.0 °F 28.0 °F 30.9 °F 89% 30.25 in 10.0 mi West 6.9 mph - N/A   Overcast
1:53 AM 32.0 °F 26.4 °F 28.9 °F 88% 30.26 in 10.0 mi WSW 5.8 mph - N/A   Partly Cloudy
2:53 AM 34.0 °F 28.0 °F 30.9 °F 89% 30.24 in 10.0 mi SW 6.9 mph - N/A   Overcast
3:53 AM 35.1 °F 27.4 °F 30.9 °F 85% 30.23 in 10.0 mi SW 10.4 mph - N/A   Overcast
4:53 AM 36.0 °F 30.3 °F 32.0 °F 86% 30.23 in 10.0 mi SW 6.9 mph - N/A   Overcast
5:53 AM 35.1 °F 27.9 °F 30.9 °F 85% 30.22 in 10.0 mi WSW 9.2 mph - N/A   Scattered Clouds
6:53 AM 33.1 °F 24.9 °F 28.9 °F 85% 30.22 in 10.0 mi SW 10.4 mph - N/A   Clear
7:53 AM 33.1 °F 25.5 °F 28.9 °F 85% 30.20 in 10.0 mi SW 9.2 mph - N/A   Overcast
8:53 AM 37.0 °F 27.0 °F 30.0 °F 76% 30.19 in 10.0 mi SW 18.4 mph - N/A   Overcast
9:53 AM 39.9 °F 31.1 °F 30.9 °F 70% 30.17 in 10.0 mi SW 17.3 mph - N/A   Overcast
10:53 AM 44.1 °F 35.9 °F 32.0 °F 63% 30.13 in 10.0 mi SSW 19.6 mph - N/A   Partly Cloudy
11:53 AM 48.0 °F - 34.0 °F 58% 30.10 in 10.0 mi SW 21.9 mph 28.8 mph N/A   Scattered Clouds
12:53 PM 51.1 °F - 35.1 °F 54% 30.07 in 10.0 mi WSW 18.4 mph 26.5 mph N/A   Overcast
1:53 PM 54.0 °F - 33.1 °F 45% 30.03 in 10.0 mi SW 17.3 mph - N/A   Overcast
2:53 PM 60.1 °F - 30.9 °F 33% 30.00 in 10.0 mi WNW 18.4 mph 25.3 mph N/A   Mostly Cloudy
3:53 PM 60.1 °F - 28.0 °F 30% 29.97 in 10.0 mi NW 15.0 mph - N/A   Clear
4:53 PM 59.0 °F - 28.0 °F 31% 29.96 in 10.0 mi WNW 13.8 mph - N/A   Partly Cloudy
5:53 PM 54.0 °F - 30.9 °F 41% 29.96 in 10.0 mi West 6.9 mph - N/A   Scattered Clouds
6:53 PM 48.0 °F - 30.9 °F 52% 29.96 in 10.0 mi WSW 6.9 mph - N/A   Clear
7:53 PM 43.0 °F 40.3 °F 32.0 °F 65% 29.96 in 10.0 mi West 4.6 mph - N/A   Clear
8:53 PM 41.0 °F 37.1 °F 32.0 °F 70% 29.97 in 10.0 mi West 5.8 mph - N/A   Clear
9:53 PM 39.9 °F 33.9 °F 30.9 °F 70% 29.96 in 10.0 mi WSW 9.2 mph - N/A   Clear
10:53 PM 42.1 °F 37.1 °F 33.1 °F 70% 29.94 in 10.0 mi SW 8.1 mph - N/A   Clear
11:53 PM 42.1 °F 38.4 °F 33.1 °F 70% 29.94 in 10.0 mi SW 5.8 mph - N/A   Clear